GEFSGL_prec_meanprecacc_234.txt.gz
Total_Precipitation_Accumulation
0.90 0.91 0.90 0.85 0.84 0.83 0.82 0.79 0.83 0.90 0.90 0.93 1.10 1.16 1.23 1.31 1.51 1.77 1.95 1.96 1.88 1.88 1.85 1.93 2.09 2.18 2.38 2.34 2.25 2.14 2.02 1.86 1.73 1.56 1.35 1.19 1.24 1.30 1.40 1.49 1.49 1.39 1.22
1.01 1.02 0.94 0.84 0.78 0.77 0.74 0.67 0.68 0.67 0.66 0.77 0.91 0.96 1.01 1.05 1.23 1.53 1.73 1.77 1.75 1.66 1.64 1.76 1.97 2.13 2.34 2.42 2.36 2.22 2.13 2.00 1.90 1.83 1.65 1.43 1.31 1.35 1.49 1.59 1.55 1.47 1.39
1.05 0.96 0.88 0.79 0.68 0.62 0.55 0.51 0.58 0.60 0.67 0.79 0.87 0.92 0.95 1.01 1.05 1.16 1.32 1.44 1.43 1.37 1.41 1.47 1.52 1.72 2.00 2.16 2.18 2.19 2.23 2.21 2.18 2.03 1.83 1.69 1.54 1.44 1.53 1.59 1.57 1.61 1.47
1.18 1.08 0.97 0.85 0.73 0.65 0.57 0.53 0.53 0.56 0.63 0.72 0.79 0.86 0.92 0.97 0.98 0.99 1.02 1.09 1.11 1.16 1.22 1.26 1.31 1.36 1.59 1.75 1.84 2.02 2.25 2.27 2.30 2.22 2.00 1.82 1.68 1.56 1.63 1.74 1.81 1.79 1.63
1.20 1.17 1.03 0.85 0.72 0.65 0.60 0.53 0.52 0.54 0.55 0.63 0.70 0.72 0.77 0.86 0.95 0.97 0.85 0.81 0.91 1.02 1.03 1.00 1.02 1.10 1.23 1.33 1.39 1.74 2.09 2.27 2.27 2.22 2.08 1.96 1.71 1.58 1.46 1.48 1.70 1.95 1.93
1.08 1.06 0.84 0.67 0.54 0.50 0.51 0.50 0.48 0.47 0.52 0.57 0.56 0.59 0.70 0.74 0.88 0.87 0.71 0.70 0.75 0.85 0.94 0.92 0.81 0.80 0.84 0.92 1.00 1.17 1.45 1.69 1.97 2.15 2.07 1.87 1.65 1.55 1.51 1.54 1.60 1.73 1.88
0.73 0.71 0.61 0.50 0.47 0.50 0.52 0.47 0.46 0.47 0.48 0.50 0.49 0.50 0.55 0.68 0.73 0.60 0.58 0.62 0.70 0.76 0.81 0.87 0.79 0.68 0.75 0.80 0.90 0.97 0.98 1.06 1.34 1.68 1.81 1.75 1.81 1.69 1.65 1.59 1.56 1.65 1.69
0.48 0.49 0.44 0.41 0.42 0.45 0.46 0.45 0.52 0.58 0.55 0.55 0.56 0.55 0.54 0.59 0.59 0.48 0.52 0.54 0.60 0.66 0.75 0.84 0.89 0.81 0.81 0.91 0.91 0.95 0.90 0.86 1.06 1.06 1.23 1.52 1.69 1.78 1.75 1.83 1.99 1.96 1.82
0.19 0.21 0.22 0.21 0.23 0.24 0.25 0.32 0.42 0.49 0.53 0.56 0.60 0.60 0.55 0.52 0.54 0.46 0.48 0.54 0.59 0.63 0.66 0.72 0.81 0.78 0.92 1.01 1.01 1.13 1.11 0.98 1.11 1.17 1.20 1.24 1.36 1.52 1.64 1.71 1.80 1.86 1.83
0.08 0.09 0.11 0.12 0.13 0.13 0.15 0.19 0.25 0.26 0.31 0.42 0.45 0.48 0.51 0.50 0.63 0.51 0.51 0.54 0.62 0.72 0.74 0.72 0.86 0.86 0.94 0.93 0.91 1.14 1.15 1.03 0.95 1.02 1.03 1.00 0.94 1.05 1.26 1.43 1.64 1.75 1.72
0.10 0.12 0.12 0.11 0.12 0.12 0.13 0.15 0.17 0.18 0.22 0.26 0.31 0.37 0.44 0.52 0.65 0.62 0.65 0.65 0.71 0.83 0.81 0.74 0.69 0.80 0.69 0.76 0.80 0.84 1.06 1.05 0.95 1.02 1.04 0.98 0.92 0.92 0.99 1.13 1.38 1.60 1.66
0.11 0.11 0.12 0.12 0.12 0.12 0.13 0.15 0.17 0.17 0.18 0.20 0.22 0.28 0.35 0.42 0.50 0.57 0.58 0.62 0.70 0.78 0.82 0.71 0.68 0.76 0.61 0.58 0.60 0.72 0.89 1.01 0.98 1.02 1.02 1.00 0.92 0.84 0.87 0.97 1.08 1.18 1.24
0.11 0.11 0.12 0.14 0.13 0.12 0.14 0.16 0.18 0.18 0.20 0.21 0.24 0.30 0.37 0.43 0.47 0.46 0.44 0.47 0.53 0.61 0.64 0.68 0.67 0.64 0.58 0.53 0.53 0.61 0.69 0.80 0.97 1.01 0.93 0.90 0.84 0.81 0.83 0.86 0.94 1.02 1.08
0.11 0.13 0.14 0.15 0.15 0.15 0.16 0.17 0.19 0.20 0.22 0.25 0.30 0.34 0.40 0.43 0.46 0.44 0.47 0.50 0.49 0.50 0.50 0.50 0.52 0.55 0.58 0.57 0.55 0.57 0.64 0.75 0.83 0.84 0.79 0.77 0.80 0.83 0.89 0.91 0.95 0.99 1.06
0.12 0.13 0.13 0.14 0.15 0.16 0.17 0.17 0.17 0.18 0.22 0.30 0.36 0.40 0.39 0.38 0.34 0.35 0.46 0.56 0.61 0.67 0.72 0.65 0.64 0.65 0.62 0.58 0.55 0.56 0.60 0.66 0.67 0.65 0.65 0.63 0.62 0.69 0.75 0.81 0.90 0.91 0.95
0.17 0.15 0.13 0.13 0.14 0.14 0.15 0.16 0.17 0.18 0.22 0.25 0.26 0.28 0.28 0.29 0.30 0.30 0.36 0.47 0.56 0.68 0.83 0.84 0.88 0.89 0.82 0.73 0.64 0.56 0.53 0.55 0.57 0.61 0.63 0.63 0.60 0.61 0.68 0.71 0.79 0.84 0.85
0.17 0.17 0.14 0.13 0.13 0.15 0.16 0.18 0.20 0.18 0.15 0.16 0.17 0.19 0.26 0.35 0.40 0.43 0.44 0.48 0.51 0.66 0.84 0.89 0.89 0.88 0.80 0.74 0.70 0.61 0.53 0.50 0.53 0.55 0.55 0.59 0.61 0.62 0.67 0.69 0.69 0.74 0.80
0.13 0.15 0.15 0.17 0.18 0.19 0.22 0.25 0.29 0.32 0.30 0.22 0.18 0.18 0.21 0.30 0.35 0.39 0.47 0.57 0.58 0.66 0.77 0.79 0.77 0.65 0.57 0.54 0.51 0.48 0.44 0.42 0.44 0.46 0.45 0.49 0.56 0.59 0.63 0.68 0.70 0.71 0.75
0.09 0.11 0.15 0.22 0.26 0.25 0.27 0.32 0.35 0.30 0.26 0.26 0.23 0.21 0.21 0.24 0.27 0.30 0.39 0.56 0.57 0.52 0.49 0.48 0.46 0.43 0.40 0.42 0.42 0.40 0.39 0.37 0.37 0.38 0.39 0.43 0.48 0.54 0.60 0.65 0.71 0.75 0.75
0.10 0.13 0.16 0.21 0.24 0.24 0.25 0.28 0.29 0.29 0.28 0.30 0.29 0.29 0.29 0.29 0.30 0.32 0.34 0.39 0.38 0.34 0.32 0.33 0.33 0.34 0.36 0.38 0.40 0.41 0.40 0.38 0.39 0.41 0.43 0.48 0.51 0.55 0.61 0.67 0.73 0.78 0.78
0.11 0.14 0.17 0.19 0.21 0.21 0.24 0.27 0.29 0.30 0.31 0.33 0.33 0.34 0.37 0.38 0.37 0.36 0.38 0.38 0.36 0.36 0.36 0.37 0.35 0.34 0.37 0.40 0.43 0.45 0.45 0.44 0.44 0.46 0.49 0.55 0.59 0.61 0.64 0.72 0.80 0.81 0.82
0.13 0.15 0.18 0.21 0.22 0.22 0.24 0.29 0.32 0.32 0.30 0.31 0.32 0.34 0.38 0.41 0.40 0.39 0.39 0.39 0.39 0.39 0.42 0.46 0.45 0.42 0.41 0.45 0.49 0.51 0.53 0.54 0.53 0.51 0.52 0.55 0.60 0.60 0.63 0.72 0.81 0.86 0.88
0.16 0.18 0.21 0.23 0.24 0.24 0.26 0.30 0.33 0.31 0.30 0.31 0.33 0.34 0.35 0.38 0.39 0.40 0.40 0.39 0.39 0.41 0.43 0.46 0.49 0.48 0.45 0.47 0.53 0.59 0.62 0.62 0.61 0.62 0.66 0.67 0.66 0.64 0.65 0.69 0.75 0.82 0.86
0.18 0.22 0.26 0.28 0.30 0.30 0.30 0.33 0.34 0.32 0.33 0.35 0.35 0.35 0.36 0.39 0.38 0.37 0.39 0.41 0.42 0.44 0.45 0.47 0.47 0.45 0.46 0.49 0.53 0.58 0.64 0.64 0.61 0.63 0.67 0.72 0.73 0.72 0.73 0.76 0.82 0.87 0.93
0.22 0.24 0.27 0.29 0.30 0.30 0.32 0.34 0.36 0.35 0.36 0.38 0.39 0.38 0.39 0.41 0.42 0.41 0.43 0.44 0.46 0.48 0.46 0.48 0.49 0.48 0.48 0.50 0.54 0.59 0.70 0.73 0.69 0.67 0.66 0.70 0.74 0.76 0.81 0.89 0.97 1.02 1.06
0.22 0.24 0.27 0.31 0.33 0.33 0.34 0.36 0.38 0.40 0.41 0.42 0.43 0.45 0.46 0.47 0.47 0.47 0.48 0.49 0.50 0.50 0.47 0.48 0.50 0.50 0.52 0.55 0.58 0.66 0.72 0.68 0.67 0.70 0.70 0.73 0.78 0.79 0.82 0.87 0.90 0.95 1.00

GEFSGL_prec_meanprecacc_240.txt.gz
Total_Precipitation_Accumulation
0.92 0.93 0.92 0.88 0.86 0.84 0.82 0.79 0.84 0.91 0.91 0.94 1.11 1.18 1.24 1.32 1.51 1.77 1.95 1.96 1.89 1.88 1.85 1.93 2.10 2.18 2.40 2.35 2.26 2.15 2.03 1.86 1.73 1.56 1.36 1.21 1.26 1.31 1.42 1.50 1.50 1.40 1.23
1.03 1.05 0.97 0.87 0.81 0.78 0.75 0.68 0.69 0.67 0.66 0.78 0.92 0.97 1.02 1.06 1.24 1.53 1.73 1.78 1.76 1.67 1.64 1.76 1.98 2.14 2.35 2.42 2.37 2.22 2.14 2.01 1.90 1.83 1.65 1.45 1.33 1.37 1.51 1.60 1.56 1.48 1.40
1.07 0.98 0.90 0.81 0.70 0.63 0.56 0.52 0.59 0.61 0.68 0.80 0.88 0.94 0.96 1.02 1.06 1.16 1.32 1.45 1.44 1.39 1.41 1.48 1.52 1.72 2.01 2.17 2.18 2.19 2.23 2.22 2.19 2.04 1.84 1.71 1.56 1.45 1.55 1.61 1.58 1.62 1.48
1.20 1.10 0.99 0.87 0.76 0.67 0.58 0.54 0.54 0.57 0.64 0.74 0.80 0.87 0.94 0.99 0.99 1.00 1.02 1.09 1.11 1.18 1.24 1.27 1.31 1.37 1.59 1.76 1.84 2.02 2.25 2.28 2.31 2.23 2.00 1.84 1.70 1.58 1.65 1.78 1.83 1.80 1.64
1.22 1.19 1.05 0.88 0.75 0.68 0.62 0.54 0.54 0.55 0.56 0.64 0.71 0.73 0.78 0.87 0.96 0.98 0.85 0.81 0.91 1.03 1.04 1.00 1.03 1.11 1.24 1.34 1.40 1.75 2.09 2.28 2.28 2.23 2.08 1.97 1.73 1.61 1.50 1.53 1.73 1.97 1.94
1.10 1.07 0.86 0.69 0.56 0.52 0.53 0.52 0.49 0.48 0.53 0.58 0.56 0.60 0.70 0.74 0.89 0.88 0.72 0.70 0.76 0.85 0.94 0.92 0.82 0.80 0.85 0.93 1.01 1.18 1.46 1.70 1.99 2.17 2.09 1.89 1.67 1.58 1.55 1.59 1.63 1.77 1.94
0.75 0.73 0.64 0.53 0.50 0.52 0.54 0.48 0.48 0.48 0.49 0.51 0.49 0.50 0.55 0.69 0.73 0.60 0.59 0.62 0.70 0.76 0.81 0.87 0.79 0.68 0.75 0.81 0.91 0.98 0.99 1.07 1.36 1.71 1.83 1.76 1.82 1.71 1.68 1.62 1.60 1.69 1.75
0.49 0.51 0.46 0.44 0.45 0.48 0.49 0.47 0.53 0.59 0.56 0.55 0.56 0.55 0.54 0.60 0.59 0.49 0.52 0.55 0.61 0.66 0.75 0.84 0.89 0.81 0.81 0.91 0.92 0.95 0.91 0.86 1.07 1.09 1.26 1.54 1.71 1.80 1.77 1.85 2.02 1.99 1.85
0.20 0.21 0.23 0.22 0.25 0.27 0.28 0.34 0.45 0.51 0.54 0.57 0.61 0.61 0.55 0.52 0.54 0.47 0.48 0.54 0.60 0.64 0.66 0.73 0.81 0.79 0.92 1.01 1.01 1.14 1.11 0.99 1.12 1.19 1.24 1.28 1.39 1.54 1.65 1.72 1.81 1.88 1.86
0.09 0.10 0.12 0.13 0.13 0.14 0.17 0.22 0.28 0.28 0.33 0.43 0.46 0.48 0.52 0.51 0.63 0.52 0.52 0.55 0.63 0.73 0.75 0.72 0.86 0.87 0.94 0.93 0.91 1.14 1.16 1.03 0.96 1.03 1.05 1.03 0.98 1.08 1.29 1.45 1.65 1.75 1.73
0.11 0.13 0.14 0.13 0.13 0.13 0.14 0.17 0.21 0.21 0.25 0.28 0.32 0.38 0.45 0.53 0.66 0.64 0.66 0.66 0.71 0.84 0.82 0.74 0.69 0.81 0.70 0.76 0.81 0.84 1.07 1.07 0.96 1.03 1.06 1.00 0.95 0.96 1.02 1.14 1.39 1.61 1.66
0.11 0.12 0.14 0.14 0.14 0.13 0.14 0.17 0.20 0.21 0.21 0.22 0.23 0.28 0.36 0.43 0.51 0.57 0.58 0.63 0.71 0.79 0.83 0.71 0.69 0.77 0.61 0.59 0.61 0.73 0.90 1.02 0.99 1.04 1.05 1.03 0.95 0.89 0.92 1.00 1.09 1.18 1.25
0.12 0.12 0.14 0.16 0.15 0.13 0.15 0.18 0.20 0.22 0.23 0.23 0.25 0.31 0.38 0.44 0.48 0.47 0.45 0.48 0.55 0.62 0.65 0.69 0.69 0.65 0.59 0.54 0.54 0.62 0.70 0.81 0.99 1.03 0.96 0.94 0.87 0.84 0.87 0.90 0.97 1.03 1.09
0.13 0.14 0.16 0.16 0.16 0.16 0.17 0.18 0.20 0.23 0.25 0.27 0.31 0.35 0.41 0.44 0.47 0.45 0.48 0.51 0.50 0.51 0.51 0.51 0.53 0.56 0.59 0.57 0.56 0.59 0.65 0.77 0.86 0.86 0.81 0.80 0.84 0.87 0.93 0.96 1.00 1.03 1.08
0.13 0.14 0.14 0.15 0.16 0.17 0.17 0.18 0.19 0.20 0.25 0.33 0.38 0.41 0.40 0.40 0.36 0.38 0.48 0.57 0.64 0.69 0.74 0.67 0.66 0.65 0.62 0.58 0.56 0.57 0.62 0.68 0.70 0.67 0.67 0.65 0.66 0.74 0.81 0.86 0.95 0.96 0.98
0.18 0.15 0.14 0.14 0.15 0.15 0.16 0.17 0.19 0.20 0.25 0.28 0.28 0.30 0.30 0.30 0.32 0.33 0.38 0.49 0.58 0.72 0.88 0.87 0.89 0.90 0.83 0.73 0.65 0.58 0.55 0.56 0.60 0.65 0.66 0.65 0.63 0.65 0.73 0.76 0.84 0.89 0.89
0.17 0.17 0.15 0.14 0.14 0.16 0.17 0.18 0.21 0.19 0.17 0.18 0.20 0.22 0.28 0.37 0.42 0.45 0.47 0.51 0.54 0.69 0.88 0.92 0.91 0.89 0.81 0.75 0.71 0.62 0.56 0.54 0.56 0.59 0.59 0.62 0.64 0.65 0.71 0.73 0.74 0.79 0.84
0.13 0.15 0.16 0.18 0.19 0.20 0.23 0.26 0.29 0.32 0.30 0.23 0.19 0.19 0.23 0.32 0.37 0.41 0.50 0.61 0.61 0.69 0.79 0.82 0.80 0.68 0.59 0.56 0.53 0.51 0.47 0.46 0.49 0.49 0.49 0.53 0.59 0.62 0.66 0.72 0.74 0.74 0.78
0.10 0.11 0.15 0.22 0.26 0.25 0.27 0.33 0.35 0.30 0.27 0.26 0.24 0.22 0.23 0.27 0.30 0.33 0.43 0.60 0.61 0.55 0.53 0.51 0.49 0.46 0.43 0.45 0.45 0.44 0.43 0.41 0.41 0.43 0.44 0.48 0.52 0.57 0.62 0.68 0.74 0.78 0.78
0.10 0.14 0.17 0.21 0.25 0.24 0.26 0.29 0.30 0.30 0.29 0.30 0.30 0.30 0.31 0.32 0.35 0.36 0.38 0.43 0.42 0.38 0.35 0.36 0.36 0.36 0.39 0.41 0.43 0.45 0.45 0.44 0.44 0.47 0.50 0.54 0.56 0.59 0.64 0.70 0.76 0.81 0.81
0.11 0.14 0.17 0.20 0.22 0.22 0.25 0.28 0.30 0.31 0.33 0.34 0.34 0.36 0.40 0.42 0.41 0.43 0.46 0.46 0.43 0.42 0.41 0.41 0.39 0.38 0.41 0.44 0.47 0.49 0.50 0.50 0.51 0.53 0.56 0.62 0.66 0.67 0.70 0.77 0.84 0.85 0.86
0.13 0.16 0.18 0.22 0.23 0.23 0.26 0.30 0.34 0.34 0.32 0.34 0.35 0.37 0.43 0.46 0.45 0.43 0.43 0.45 0.46 0.47 0.50 0.52 0.50 0.46 0.45 0.49 0.54 0.56 0.57 0.59 0.59 0.59 0.60 0.63 0.68 0.66 0.68 0.77 0.86 0.90 0.92
0.16 0.19 0.22 0.24 0.25 0.25 0.28 0.32 0.35 0.34 0.33 0.35 0.37 0.38 0.41 0.44 0.44 0.44 0.43 0.43 0.43 0.45 0.48 0.53 0.56 0.54 0.49 0.50 0.56 0.62 0.65 0.65 0.65 0.67 0.71 0.73 0.72 0.70 0.70 0.74 0.79 0.86 0.90
0.19 0.23 0.27 0.30 0.31 0.31 0.32 0.35 0.37 0.35 0.36 0.39 0.39 0.39 0.41 0.43 0.42 0.41 0.42 0.44 0.47 0.49 0.50 0.52 0.54 0.54 0.52 0.53 0.56 0.61 0.67 0.67 0.64 0.66 0.71 0.77 0.79 0.77 0.77 0.81 0.86 0.90 0.96
0.22 0.25 0.27 0.30 0.30 0.31 0.33 0.36 0.38 0.37 0.38 0.41 0.41 0.41 0.42 0.44 0.45 0.45 0.46 0.46 0.49 0.52 0.51 0.52 0.54 0.54 0.55 0.55 0.57 0.61 0.73 0.76 0.72 0.70 0.70 0.75 0.79 0.80 0.85 0.93 1.01 1.05 1.09
0.22 0.24 0.27 0.31 0.33 0.34 0.35 0.37 0.40 0.41 0.42 0.43 0.44 0.47 0.48 0.49 0.49 0.49 0.50 0.51 0.51 0.52 0.51 0.52 0.53 0.54 0.56 0.60 0.63 0.69 0.75 0.71 0.69 0.73 0.73 0.77 0.83 0.84 0.85 0.91 0.93 0.97 1.02

GEFSGL_prec_meanprecacc_246.txt.gz
Total_Precipitation_Accumulation
0.93 0.95 0.94 0.89 0.87 0.85 0.83 0.80 0.84 0.91 0.91 0.94 1.11 1.18 1.24 1.32 1.51 1.78 1.96 1.97 1.89 1.89 1.86 1.94 2.10 2.19 2.40 2.36 2.27 2.16 2.03 1.87 1.74 1.57 1.36 1.21 1.26 1.31 1.42 1.50 1.50 1.40 1.23
1.04 1.06 0.98 0.89 0.82 0.79 0.76 0.68 0.69 0.67 0.67 0.79 0.92 0.97 1.02 1.07 1.25 1.54 1.74 1.78 1.76 1.67 1.64 1.76 1.98 2.14 2.35 2.43 2.38 2.23 2.14 2.01 1.90 1.84 1.66 1.46 1.34 1.38 1.51 1.60 1.56 1.48 1.40
1.08 0.99 0.91 0.82 0.71 0.65 0.57 0.53 0.60 0.61 0.68 0.80 0.89 0.94 0.96 1.02 1.06 1.17 1.33 1.45 1.44 1.39 1.42 1.48 1.53 1.73 2.01 2.17 2.18 2.20 2.24 2.22 2.19 2.04 1.85 1.73 1.58 1.46 1.56 1.61 1.59 1.62 1.48
1.21 1.11 1.00 0.88 0.77 0.68 0.60 0.55 0.55 0.58 0.65 0.74 0.81 0.88 0.94 0.99 1.00 1.00 1.02 1.09 1.11 1.18 1.24 1.27 1.31 1.37 1.60 1.76 1.84 2.03 2.26 2.28 2.31 2.24 2.01 1.85 1.72 1.59 1.66 1.78 1.84 1.80 1.64
1.23 1.21 1.07 0.89 0.77 0.69 0.64 0.56 0.55 0.56 0.57 0.64 0.71 0.74 0.78 0.87 0.96 0.99 0.85 0.81 0.91 1.03 1.05 1.01 1.03 1.11 1.24 1.35 1.41 1.76 2.10 2.29 2.29 2.24 2.09 1.99 1.75 1.64 1.51 1.54 1.73 1.97 1.95
1.11 1.09 0.89 0.71 0.58 0.53 0.54 0.54 0.51 0.49 0.54 0.58 0.57 0.60 0.71 0.75 0.90 0.89 0.73 0.71 0.76 0.86 0.94 0.93 0.82 0.80 0.85 0.94 1.02 1.18 1.46 1.71 1.99 2.18 2.10 1.90 1.69 1.60 1.57 1.60 1.64 1.78 1.94
0.76 0.74 0.65 0.54 0.51 0.54 0.55 0.50 0.49 0.49 0.50 0.52 0.50 0.51 0.56 0.69 0.74 0.61 0.60 0.64 0.71 0.76 0.82 0.87 0.79 0.69 0.76 0.81 0.91 0.99 1.00 1.07 1.37 1.72 1.84 1.77 1.84 1.73 1.71 1.65 1.62 1.70 1.77
0.49 0.51 0.47 0.45 0.46 0.50 0.50 0.49 0.56 0.60 0.57 0.57 0.57 0.56 0.55 0.60 0.60 0.50 0.54 0.57 0.62 0.67 0.76 0.85 0.90 0.82 0.81 0.92 0.93 0.96 0.91 0.87 1.08 1.10 1.26 1.55 1.72 1.81 1.79 1.88 2.04 2.00 1.87
0.20 0.22 0.23 0.22 0.25 0.28 0.29 0.35 0.46 0.53 0.56 0.59 0.62 0.62 0.56 0.53 0.56 0.48 0.50 0.56 0.60 0.65 0.67 0.73 0.82 0.79 0.93 1.02 1.02 1.14 1.12 1.00 1.13 1.20 1.24 1.29 1.41 1.56 1.68 1.75 1.84 1.91 1.89
0.10 0.10 0.13 0.14 0.14 0.15 0.18 0.23 0.29 0.29 0.35 0.45 0.47 0.49 0.52 0.51 0.65 0.53 0.53 0.56 0.64 0.73 0.76 0.73 0.87 0.88 0.96 0.95 0.92 1.15 1.17 1.05 0.96 1.04 1.05 1.04 0.99 1.09 1.31 1.47 1.68 1.79 1.76
0.13 0.15 0.15 0.14 0.14 0.14 0.15 0.18 0.22 0.22 0.26 0.30 0.34 0.39 0.46 0.53 0.66 0.64 0.67 0.67 0.73 0.85 0.83 0.75 0.70 0.83 0.72 0.79 0.82 0.85 1.08 1.08 0.97 1.03 1.07 1.01 0.96 0.97 1.04 1.17 1.42 1.64 1.70
0.12 0.12 0.15 0.15 0.15 0.15 0.15 0.18 0.21 0.23 0.23 0.24 0.25 0.30 0.37 0.43 0.52 0.58 0.59 0.64 0.73 0.81 0.85 0.73 0.71 0.79 0.64 0.61 0.63 0.74 0.92 1.03 1.00 1.05 1.06 1.03 0.96 0.90 0.93 1.02 1.12 1.22 1.28
0.12 0.13 0.15 0.16 0.15 0.14 0.15 0.19 0.21 0.24 0.25 0.26 0.28 0.33 0.40 0.45 0.48 0.48 0.46 0.49 0.56 0.64 0.67 0.71 0.70 0.67 0.61 0.56 0.56 0.63 0.72 0.82 1.00 1.03 0.97 0.94 0.88 0.85 0.88 0.92 1.00 1.07 1.12
0.13 0.15 0.16 0.17 0.17 0.16 0.17 0.19 0.20 0.23 0.27 0.30 0.34 0.38 0.43 0.46 0.48 0.46 0.50 0.53 0.52 0.53 0.53 0.53 0.55 0.58 0.60 0.58 0.57 0.60 0.66 0.78 0.86 0.86 0.82 0.80 0.84 0.87 0.94 0.98 1.03 1.07 1.13
0.13 0.14 0.14 0.15 0.16 0.17 0.18 0.18 0.19 0.20 0.27 0.35 0.40 0.43 0.42 0.41 0.38 0.39 0.50 0.60 0.66 0.71 0.76 0.69 0.68 0.67 0.63 0.59 0.56 0.58 0.62 0.69 0.71 0.68 0.68 0.66 0.66 0.74 0.82 0.88 0.98 1.00 1.02
0.18 0.15 0.14 0.14 0.15 0.16 0.16 0.17 0.19 0.20 0.25 0.29 0.31 0.32 0.32 0.32 0.33 0.35 0.40 0.51 0.60 0.74 0.89 0.88 0.91 0.92 0.85 0.75 0.66 0.59 0.55 0.57 0.61 0.66 0.67 0.66 0.63 0.66 0.74 0.79 0.88 0.92 0.93
0.17 0.17 0.15 0.14 0.15 0.16 0.18 0.19 0.21 0.19 0.17 0.18 0.21 0.24 0.30 0.39 0.43 0.46 0.48 0.53 0.56 0.71 0.89 0.93 0.92 0.91 0.83 0.77 0.73 0.64 0.58 0.55 0.57 0.60 0.61 0.63 0.65 0.67 0.73 0.77 0.78 0.83 0.87
0.13 0.15 0.16 0.18 0.19 0.20 0.23 0.26 0.30 0.32 0.31 0.23 0.20 0.21 0.24 0.33 0.39 0.43 0.51 0.63 0.63 0.70 0.81 0.83 0.82 0.69 0.61 0.58 0.55 0.53 0.49 0.48 0.50 0.51 0.51 0.55 0.61 0.64 0.69 0.75 0.79 0.78 0.81
0.10 0.12 0.15 0.22 0.26 0.25 0.28 0.34 0.36 0.31 0.27 0.27 0.25 0.24 0.25 0.28 0.31 0.34 0.44 0.61 0.62 0.56 0.54 0.52 0.50 0.48 0.45 0.46 0.47 0.46 0.45 0.44 0.44 0.45 0.46 0.50 0.54 0.59 0.65 0.71 0.78 0.83 0.81
0.10 0.14 0.17 0.22 0.25 0.25 0.26 0.29 0.31 0.31 0.30 0.31 0.31 0.32 0.33 0.34 0.36 0.38 0.40 0.44 0.43 0.39 0.36 0.37 0.37 0.37 0.40 0.43 0.46 0.48 0.48 0.48 0.48 0.50 0.52 0.56 0.58 0.62 0.68 0.75 0.81 0.86 0.85
0.12 0.15 0.17 0.20 0.22 0.23 0.25 0.29 0.31 0.32 0.33 0.35 0.35 0.37 0.42 0.44 0.43 0.45 0.48 0.48 0.45 0.43 0.42 0.43 0.41 0.40 0.44 0.46 0.50 0.52 0.52 0.53 0.55 0.56 0.59 0.65 0.69 0.71 0.74 0.82 0.89 0.90 0.91
0.15 0.17 0.19 0.22 0.23 0.23 0.27 0.31 0.35 0.34 0.33 0.35 0.36 0.39 0.45 0.48 0.47 0.46 0.46 0.48 0.50 0.50 0.53 0.55 0.53 0.49 0.48 0.52 0.57 0.59 0.61 0.62 0.62 0.62 0.63 0.66 0.71 0.71 0.73 0.82 0.91 0.95 0.97
0.18 0.21 0.23 0.25 0.26 0.26 0.28 0.33 0.36 0.35 0.34 0.36 0.38 0.39 0.42 0.47 0.47 0.46 0.47 0.47 0.49 0.51 0.54 0.58 0.61 0.58 0.52 0.53 0.59 0.66 0.69 0.70 0.68 0.70 0.75 0.76 0.76 0.75 0.75 0.78 0.84 0.90 0.95
0.21 0.25 0.28 0.31 0.32 0.31 0.33 0.36 0.38 0.35 0.36 0.39 0.40 0.40 0.42 0.45 0.44 0.43 0.45 0.47 0.51 0.55 0.56 0.59 0.61 0.59 0.56 0.57 0.60 0.65 0.70 0.70 0.67 0.70 0.75 0.81 0.83 0.83 0.84 0.87 0.91 0.95 1.01
0.23 0.26 0.28 0.30 0.31 0.32 0.34 0.36 0.39 0.38 0.39 0.41 0.42 0.42 0.44 0.46 0.47 0.47 0.48 0.49 0.52 0.57 0.56 0.58 0.61 0.61 0.60 0.59 0.60 0.64 0.76 0.79 0.75 0.74 0.74 0.79 0.83 0.85 0.91 0.99 1.07 1.10 1.15
0.22 0.25 0.28 0.32 0.34 0.35 0.36 0.38 0.40 0.42 0.43 0.44 0.45 0.48 0.49 0.51 0.51 0.50 0.52 0.53 0.53 0.55 0.55 0.57 0.59 0.59 0.61 0.65 0.68 0.74 0.79 0.75 0.73 0.77 0.77 0.82 0.87 0.88 0.91 0.97 0.99 1.03 1.08

GEFSGL_prec_meanprecacc_252.txt.gz
Total_Precipitation_Accumulation
0.94 0.96 0.96 0.91 0.89 0.87 0.84 0.81 0.85 0.92 0.91 0.94 1.12 1.18 1.24 1.32 1.52 1.79 1.96 1.97 1.89 1.89 1.86 1.94 2.11 2.20 2.41 2.37 2.28 2.17 2.04 1.88 1.75 1.58 1.36 1.21 1.26 1.31 1.42 1.51 1.51 1.41 1.24
1.06 1.07 0.99 0.91 0.85 0.80 0.77 0.69 0.70 0.68 0.67 0.79 0.92 0.97 1.03 1.07 1.25 1.54 1.74 1.79 1.77 1.68 1.65 1.77 1.98 2.15 2.36 2.44 2.39 2.24 2.15 2.02 1.91 1.84 1.67 1.46 1.34 1.38 1.52 1.61 1.57 1.49 1.41
1.10 1.01 0.93 0.85 0.74 0.66 0.58 0.54 0.60 0.62 0.69 0.80 0.89 0.94 0.97 1.03 1.07 1.17 1.33 1.46 1.45 1.40 1.43 1.49 1.54 1.74 2.02 2.18 2.19 2.21 2.24 2.22 2.20 2.05 1.85 1.73 1.58 1.46 1.57 1.62 1.59 1.63 1.50
1.22 1.13 1.02 0.90 0.78 0.71 0.62 0.57 0.55 0.58 0.65 0.74 0.82 0.88 0.95 1.00 1.01 1.02 1.04 1.11 1.13 1.19 1.25 1.28 1.32 1.38 1.61 1.78 1.86 2.04 2.27 2.29 2.32 2.24 2.02 1.86 1.74 1.60 1.67 1.79 1.85 1.81 1.66
1.24 1.23 1.09 0.91 0.78 0.71 0.66 0.58 0.56 0.57 0.57 0.65 0.72 0.74 0.79 0.88 0.97 1.00 0.87 0.83 0.93 1.04 1.06 1.01 1.04 1.13 1.26 1.37 1.43 1.78 2.13 2.31 2.30 2.25 2.10 2.00 1.78 1.65 1.52 1.54 1.74 1.98 1.96
1.12 1.10 0.91 0.73 0.60 0.54 0.55 0.54 0.52 0.50 0.55 0.60 0.57 0.61 0.71 0.75 0.91 0.90 0.74 0.72 0.77 0.87 0.96 0.94 0.83 0.81 0.86 0.95 1.03 1.20 1.48 1.73 2.01 2.20 2.11 1.91 1.70 1.61 1.58 1.60 1.65 1.79 1.96
0.77 0.75 0.66 0.55 0.52 0.55 0.56 0.51 0.50 0.50 0.51 0.53 0.51 0.51 0.56 0.70 0.75 0.62 0.61 0.65 0.71 0.77 0.83 0.89 0.81 0.70 0.77 0.82 0.92 1.00 1.01 1.09 1.38 1.74 1.85 1.78 1.85 1.74 1.72 1.66 1.64 1.72 1.79
0.50 0.52 0.47 0.45 0.47 0.50 0.51 0.50 0.57 0.61 0.59 0.58 0.60 0.57 0.55 0.61 0.61 0.50 0.55 0.57 0.63 0.68 0.77 0.86 0.91 0.84 0.83 0.94 0.94 0.97 0.92 0.88 1.10 1.12 1.28 1.56 1.73 1.82 1.80 1.90 2.05 2.01 1.88
0.21 0.22 0.23 0.23 0.26 0.28 0.29 0.36 0.47 0.54 0.57 0.61 0.64 0.64 0.57 0.55 0.58 0.49 0.51 0.56 0.61 0.66 0.68 0.75 0.83 0.81 0.95 1.05 1.04 1.16 1.14 1.02 1.15 1.22 1.26 1.31 1.42 1.57 1.69 1.77 1.85 1.92 1.90
0.10 0.11 0.13 0.14 0.15 0.15 0.18 0.23 0.29 0.30 0.36 0.46 0.49 0.51 0.55 0.53 0.67 0.56 0.55 0.57 0.65 0.74 0.77 0.75 0.89 0.90 1.00 0.98 0.95 1.18 1.20 1.08 1.00 1.06 1.07 1.06 1.00 1.11 1.33 1.48 1.69 1.80 1.77
0.14 0.16 0.17 0.16 0.16 0.16 0.16 0.19 0.23 0.23 0.27 0.31 0.35 0.40 0.48 0.56 0.70 0.67 0.69 0.68 0.73 0.86 0.84 0.77 0.72 0.85 0.74 0.82 0.86 0.88 1.10 1.11 1.00 1.06 1.09 1.02 0.97 0.99 1.05 1.18 1.44 1.65 1.71
0.14 0.15 0.16 0.16 0.17 0.16 0.17 0.20 0.23 0.25 0.24 0.25 0.26 0.31 0.38 0.44 0.54 0.60 0.61 0.65 0.74 0.82 0.86 0.75 0.73 0.81 0.65 0.64 0.65 0.77 0.95 1.06 1.03 1.08 1.08 1.05 0.97 0.90 0.94 1.02 1.13 1.23 1.29
0.14 0.15 0.17 0.18 0.17 0.15 0.17 0.20 0.22 0.25 0.26 0.28 0.29 0.34 0.41 0.45 0.49 0.49 0.48 0.51 0.57 0.65 0.68 0.72 0.72 0.69 0.63 0.58 0.58 0.66 0.74 0.85 1.02 1.05 0.99 0.96 0.89 0.86 0.88 0.92 1.00 1.08 1.14
0.15 0.16 0.18 0.18 0.18 0.18 0.19 0.20 0.22 0.24 0.28 0.31 0.36 0.39 0.44 0.47 0.49 0.47 0.51 0.55 0.53 0.54 0.55 0.55 0.57 0.60 0.62 0.60 0.59 0.62 0.68 0.79 0.88 0.88 0.84 0.82 0.86 0.89 0.95 0.98 1.04 1.08 1.14
0.14 0.15 0.15 0.16 0.17 0.18 0.18 0.19 0.20 0.21 0.27 0.36 0.41 0.44 0.43 0.41 0.39 0.41 0.52 0.61 0.67 0.73 0.78 0.70 0.69 0.68 0.65 0.60 0.57 0.59 0.63 0.70 0.72 0.69 0.69 0.68 0.68 0.77 0.84 0.90 0.99 1.01 1.04
0.19 0.16 0.15 0.15 0.16 0.16 0.17 0.18 0.20 0.21 0.26 0.30 0.31 0.33 0.33 0.33 0.34 0.36 0.41 0.52 0.62 0.76 0.91 0.90 0.93 0.93 0.87 0.77 0.67 0.60 0.56 0.57 0.62 0.66 0.68 0.67 0.65 0.68 0.77 0.82 0.89 0.94 0.94
0.18 0.18 0.16 0.15 0.16 0.17 0.18 0.19 0.22 0.20 0.18 0.19 0.22 0.24 0.31 0.40 0.44 0.47 0.50 0.55 0.59 0.74 0.92 0.94 0.95 0.93 0.85 0.79 0.75 0.66 0.59 0.56 0.58 0.61 0.62 0.64 0.66 0.68 0.76 0.80 0.80 0.84 0.88
0.13 0.16 0.16 0.19 0.20 0.21 0.24 0.27 0.30 0.33 0.31 0.24 0.21 0.22 0.25 0.34 0.39 0.44 0.53 0.65 0.66 0.73 0.83 0.85 0.84 0.72 0.64 0.60 0.57 0.54 0.51 0.50 0.51 0.52 0.52 0.57 0.62 0.66 0.71 0.78 0.82 0.81 0.83
0.10 0.12 0.16 0.23 0.27 0.26 0.28 0.34 0.36 0.31 0.28 0.27 0.26 0.24 0.25 0.28 0.31 0.35 0.46 0.63 0.64 0.58 0.56 0.54 0.53 0.51 0.48 0.50 0.50 0.48 0.47 0.46 0.45 0.47 0.47 0.51 0.56 0.60 0.67 0.73 0.81 0.85 0.83
0.11 0.15 0.17 0.22 0.25 0.25 0.27 0.30 0.31 0.31 0.30 0.32 0.32 0.32 0.34 0.34 0.36 0.39 0.41 0.47 0.46 0.41 0.38 0.39 0.38 0.39 0.43 0.46 0.49 0.52 0.52 0.50 0.50 0.52 0.54 0.58 0.60 0.64 0.70 0.77 0.84 0.89 0.87
0.13 0.15 0.18 0.21 0.22 0.23 0.26 0.29 0.32 0.33 0.34 0.35 0.36 0.38 0.43 0.45 0.44 0.46 0.50 0.50 0.47 0.46 0.44 0.44 0.43 0.42 0.45 0.49 0.53 0.56 0.57 0.58 0.58 0.59 0.61 0.67 0.71 0.73 0.76 0.84 0.91 0.93 0.93
0.15 0.17 0.19 0.23 0.24 0.24 0.28 0.32 0.36 0.35 0.34 0.35 0.36 0.40 0.47 0.50 0.49 0.47 0.48 0.51 0.52 0.52 0.55 0.57 0.56 0.52 0.51 0.55 0.61 0.63 0.65 0.66 0.66 0.65 0.65 0.69 0.74 0.73 0.75 0.84 0.94 0.98 1.00
0.20 0.23 0.25 0.26 0.26 0.26 0.29 0.33 0.37 0.35 0.35 0.36 0.38 0.40 0.44 0.48 0.49 0.48 0.48 0.49 0.50 0.53 0.56 0.60 0.63 0.60 0.56 0.57 0.64 0.71 0.74 0.73 0.71 0.72 0.78 0.80 0.79 0.78 0.78 0.81 0.86 0.93 0.97
0.24 0.27 0.31 0.33 0.33 0.32 0.33 0.36 0.38 0.36 0.37 0.40 0.40 0.41 0.43 0.46 0.46 0.44 0.46 0.48 0.52 0.56 0.58 0.61 0.63 0.61 0.59 0.60 0.63 0.69 0.74 0.74 0.71 0.73 0.78 0.85 0.88 0.87 0.88 0.91 0.95 0.99 1.04
0.26 0.28 0.31 0.33 0.33 0.33 0.35 0.37 0.40 0.39 0.39 0.42 0.43 0.43 0.45 0.47 0.49 0.49 0.50 0.50 0.53 0.59 0.59 0.61 0.64 0.64 0.64 0.63 0.64 0.68 0.80 0.83 0.80 0.78 0.79 0.84 0.87 0.90 0.95 1.03 1.11 1.14 1.18
0.24 0.26 0.30 0.34 0.36 0.37 0.38 0.39 0.41 0.43 0.44 0.44 0.46 0.49 0.51 0.52 0.53 0.52 0.54 0.54 0.55 0.56 0.57 0.59 0.62 0.63 0.66 0.70 0.71 0.77 0.82 0.77 0.76 0.81 0.83 0.87 0.92 0.93 0.95 1.01 1.03 1.07 1.12

GEFSGL_prec_meanprecacc_258.txt.gz
Total_Precipitation_Accumulation
1.00 1.02 1.03 0.98 0.96 0.93 0.89 0.84 0.86 0.93 0.93 0.95 1.12 1.18 1.25 1.33 1.53 1.80 1.97 1.98 1.91 1.91 1.88 1.95 2.12 2.21 2.42 2.38 2.29 2.18 2.05 1.89 1.76 1.58 1.37 1.21 1.26 1.32 1.43 1.51 1.51 1.41 1.24
1.10 1.12 1.04 0.96 0.90 0.90 0.85 0.74 0.73 0.70 0.69 0.80 0.93 0.98 1.03 1.08 1.27 1.55 1.75 1.80 1.78 1.70 1.67 1.80 2.01 2.17 2.37 2.47 2.41 2.25 2.16 2.03 1.91 1.85 1.67 1.46 1.34 1.38 1.52 1.61 1.57 1.50 1.42
1.13 1.05 0.97 0.89 0.80 0.76 0.66 0.59 0.64 0.65 0.71 0.82 0.91 0.95 0.99 1.05 1.09 1.19 1.35 1.47 1.47 1.42 1.45 1.51 1.55 1.75 2.03 2.20 2.22 2.23 2.27 2.24 2.20 2.05 1.85 1.73 1.58 1.46 1.57 1.62 1.60 1.63 1.50
1.25 1.16 1.05 0.94 0.84 0.80 0.70 0.61 0.59 0.61 0.68 0.77 0.83 0.90 0.96 1.01 1.02 1.03 1.06 1.13 1.14 1.20 1.26 1.29 1.33 1.39 1.62 1.79 1.88 2.06 2.29 2.31 2.33 2.25 2.02 1.86 1.75 1.61 1.67 1.79 1.85 1.82 1.66
1.25 1.24 1.11 0.94 0.83 0.77 0.73 0.65 0.62 0.61 0.61 0.69 0.75 0.76 0.80 0.89 0.98 1.01 0.89 0.85 0.95 1.06 1.07 1.03 1.05 1.13 1.27 1.39 1.44 1.80 2.15 2.33 2.32 2.26 2.10 2.01 1.78 1.66 1.52 1.55 1.75 1.99 1.97
1.13 1.11 0.92 0.76 0.62 0.58 0.60 0.61 0.60 0.57 0.59 0.63 0.60 0.63 0.72 0.76 0.91 0.91 0.75 0.75 0.80 0.90 0.98 0.95 0.83 0.82 0.87 0.96 1.05 1.22 1.50 1.74 2.03 2.22 2.12 1.92 1.70 1.61 1.59 1.61 1.66 1.80 1.97
0.78 0.76 0.67 0.56 0.53 0.57 0.60 0.55 0.57 0.58 0.57 0.57 0.54 0.54 0.58 0.71 0.76 0.62 0.62 0.66 0.73 0.79 0.86 0.90 0.81 0.70 0.78 0.83 0.93 1.01 1.02 1.09 1.40 1.76 1.88 1.80 1.86 1.75 1.72 1.66 1.64 1.73 1.80
0.51 0.53 0.48 0.46 0.48 0.51 0.52 0.52 0.59 0.65 0.63 0.62 0.63 0.60 0.58 0.64 0.64 0.52 0.55 0.58 0.64 0.69 0.78 0.88 0.92 0.84 0.84 0.95 0.95 0.98 0.93 0.89 1.11 1.13 1.29 1.59 1.75 1.83 1.80 1.90 2.06 2.02 1.89
0.21 0.22 0.24 0.24 0.26 0.29 0.30 0.37 0.48 0.55 0.59 0.63 0.68 0.67 0.60 0.57 0.62 0.53 0.53 0.57 0.62 0.66 0.68 0.76 0.84 0.82 0.96 1.07 1.05 1.18 1.15 1.02 1.16 1.23 1.29 1.34 1.45 1.59 1.71 1.78 1.86 1.92 1.90
0.11 0.12 0.14 0.15 0.15 0.16 0.20 0.25 0.30 0.32 0.38 0.49 0.51 0.53 0.57 0.55 0.71 0.60 0.59 0.60 0.66 0.75 0.78 0.75 0.90 0.91 1.01 0.99 0.97 1.20 1.21 1.08 1.00 1.06 1.08 1.08 1.02 1.13 1.35 1.50 1.71 1.81 1.78
0.16 0.18 0.18 0.17 0.18 0.19 0.20 0.23 0.26 0.27 0.31 0.34 0.38 0.42 0.50 0.58 0.72 0.71 0.74 0.72 0.76 0.88 0.85 0.78 0.73 0.86 0.75 0.83 0.87 0.90 1.12 1.12 1.01 1.07 1.10 1.04 0.99 1.00 1.06 1.19 1.45 1.67 1.73
0.16 0.17 0.19 0.20 0.20 0.20 0.21 0.23 0.26 0.27 0.27 0.29 0.29 0.34 0.40 0.46 0.55 0.62 0.64 0.68 0.77 0.85 0.89 0.77 0.74 0.82 0.67 0.65 0.67 0.78 0.97 1.08 1.04 1.09 1.09 1.06 0.98 0.92 0.95 1.03 1.14 1.24 1.31
0.16 0.17 0.19 0.21 0.21 0.19 0.21 0.24 0.25 0.27 0.29 0.31 0.33 0.37 0.43 0.47 0.51 0.50 0.49 0.53 0.60 0.67 0.70 0.74 0.74 0.71 0.65 0.60 0.60 0.69 0.77 0.87 1.03 1.07 1.00 0.97 0.91 0.87 0.90 0.94 1.02 1.09 1.15
0.17 0.19 0.20 0.20 0.20 0.19 0.20 0.22 0.24 0.27 0.30 0.33 0.38 0.41 0.45 0.48 0.50 0.49 0.53 0.56 0.55 0.56 0.56 0.56 0.58 0.62 0.65 0.62 0.61 0.64 0.71 0.82 0.90 0.90 0.85 0.83 0.88 0.91 0.97 1.01 1.06 1.10 1.16
0.17 0.18 0.17 0.17 0.18 0.19 0.20 0.20 0.21 0.23 0.29 0.38 0.43 0.46 0.45 0.43 0.41 0.43 0.53 0.62 0.69 0.74 0.80 0.71 0.70 0.70 0.68 0.62 0.59 0.60 0.65 0.72 0.74 0.71 0.71 0.69 0.70 0.78 0.85 0.91 1.01 1.04 1.06
0.20 0.17 0.16 0.16 0.17 0.17 0.18 0.19 0.21 0.22 0.28 0.31 0.33 0.34 0.34 0.35 0.36 0.37 0.43 0.54 0.64 0.78 0.94 0.92 0.94 0.95 0.89 0.79 0.69 0.61 0.58 0.60 0.64 0.68 0.70 0.69 0.66 0.69 0.78 0.83 0.91 0.96 0.96
0.19 0.19 0.17 0.16 0.17 0.18 0.19 0.20 0.22 0.20 0.18 0.20 0.23 0.25 0.32 0.41 0.46 0.49 0.51 0.56 0.60 0.76 0.94 0.96 0.96 0.94 0.87 0.81 0.77 0.68 0.61 0.58 0.60 0.63 0.63 0.65 0.67 0.69 0.76 0.81 0.81 0.86 0.89
0.16 0.17 0.18 0.20 0.20 0.22 0.25 0.28 0.31 0.34 0.32 0.24 0.22 0.23 0.26 0.35 0.41 0.45 0.54 0.67 0.67 0.75 0.85 0.87 0.86 0.74 0.66 0.62 0.59 0.57 0.53 0.51 0.53 0.54 0.54 0.58 0.63 0.66 0.71 0.79 0.83 0.82 0.84
0.13 0.16 0.19 0.25 0.29 0.27 0.29 0.35 0.37 0.33 0.29 0.29 0.28 0.26 0.26 0.30 0.33 0.36 0.47 0.64 0.65 0.61 0.57 0.55 0.54 0.53 0.50 0.52 0.52 0.50 0.50 0.48 0.47 0.48 0.48 0.52 0.57 0.61 0.67 0.74 0.82 0.86 0.85
0.11 0.16 0.19 0.24 0.27 0.28 0.29 0.31 0.32 0.33 0.32 0.34 0.35 0.36 0.36 0.36 0.38 0.40 0.42 0.48 0.47 0.43 0.41 0.40 0.40 0.42 0.45 0.48 0.52 0.54 0.54 0.53 0.52 0.54 0.56 0.59 0.61 0.65 0.71 0.78 0.85 0.90 0.89
0.13 0.16 0.19 0.21 0.23 0.24 0.27 0.30 0.32 0.34 0.35 0.36 0.36 0.39 0.45 0.47 0.46 0.47 0.51 0.51 0.49 0.47 0.46 0.46 0.44 0.43 0.47 0.51 0.55 0.59 0.60 0.61 0.62 0.62 0.64 0.69 0.72 0.74 0.77 0.85 0.93 0.94 0.95
0.16 0.18 0.20 0.23 0.25 0.25 0.28 0.33 0.37 0.36 0.35 0.36 0.37 0.41 0.48 0.50 0.49 0.47 0.48 0.51 0.53 0.54 0.56 0.58 0.57 0.53 0.52 0.57 0.63 0.67 0.69 0.69 0.69 0.68 0.69 0.72 0.77 0.75 0.78 0.86 0.96 1.00 1.02
0.21 0.24 0.26 0.27 0.28 0.28 0.30 0.34 0.38 0.36 0.35 0.37 0.39 0.40 0.44 0.49 0.49 0.48 0.48 0.49 0.51 0.53 0.56 0.61 0.64 0.62 0.57 0.59 0.66 0.74 0.78 0.76 0.74 0.76 0.82 0.84 0.83 0.82 0.81 0.85 0.89 0.96 1.00
0.24 0.29 0.32 0.35 0.35 0.34 0.35 0.38 0.40 0.37 0.38 0.41 0.41 0.41 0.43 0.47 0.46 0.45 0.47 0.49 0.53 0.56 0.58 0.62 0.64 0.63 0.60 0.62 0.66 0.72 0.78 0.78 0.75 0.76 0.81 0.89 0.92 0.91 0.91 0.94 0.98 1.01 1.07
0.27 0.29 0.32 0.35 0.35 0.35 0.37 0.39 0.42 0.40 0.41 0.43 0.44 0.43 0.45 0.48 0.49 0.49 0.51 0.51 0.54 0.59 0.59 0.62 0.66 0.66 0.66 0.65 0.66 0.71 0.84 0.88 0.84 0.82 0.82 0.87 0.91 0.94 0.99 1.07 1.15 1.18 1.21
0.25 0.27 0.31 0.35 0.38 0.38 0.40 0.41 0.43 0.44 0.45 0.46 0.47 0.50 0.52 0.53 0.54 0.53 0.54 0.55 0.55 0.57 0.58 0.61 0.64 0.66 0.68 0.72 0.74 0.80 0.86 0.81 0.80 0.85 0.86 0.91 0.96 0.97 0.98 1.04 1.07 1.11 1.15